Location: ?
(35.4214°N, 139.3011°E)
Time: 22:36:05
(UTC+00:00)

ERS-1 Rocket - Pass Details

Date: 14 July 2020
Orbit: 752 x 758 km, 98.5° (Epoch: 10 August)

Event Time Altitude Azimuth Distance (km) Brightness Sun altitude
Exits shadow 11:36:29 23° 99° (E) 1,570 4.1 -17.1°
Maximum altitude 11:38:04 27° 69° (ENE) 1,415 4.1 -17.3°
Drops below altitude 10° 11:42:17 10° 12° (NNE) 2,291 5.9 -17.9°
Sets 11:44:51 0° 1° (N) 3,219 6.9 -18.3°
